Location: Riverside Cemetery
(38.3047°N, 99.7773°W)
Time: 17:15:47
(UTC+00:00)

BREEZE-M DEB (TANK) - Pass Details

Date: 19 September 2020
Orbit: 424 x 13860 km, 45.9° (Epoch: 20 October)

Event Time Altitude Azimuth Distance (km) Brightness Sun altitude
Exits shadow 09:50:30 66° 213° (SSW) 1,385 3.9 -29.8°
Maximum altitude 09:51:38 81° 146° (SE) 1,464 4.2 -29.6°
Drops below altitude 10° 10:11:49 10° 62° (ENE) 8,441 9.3 -26.1°
Sets 10:24:18 0° 64° (ENE) 11,996 10.5 -23.8°
